Location: Alladorf
(49.9620°N, 11.3790°E)
Time: 21:31:26
(UTC+00:00)

Cosmos 2074 Rocket - Pass Details

Date: 29 November 2020
Orbit: 968 x 985 km, 82.9° (Epoch: 24 January)

Event Time Altitude Azimuth Distance (km) Brightness Sun altitude
Rises 05:29:33 0° 210° (SSW) 3,650 6.9 -12.2°
Reaches altitude 10° 05:32:12 10° 217° (SW) 2,706 6.2 -11.8°
Maximum altitude 05:38:03 43° 288° (WNW) 1,337 4.3 -10.9°
Drops below altitude 10° 05:43:58 10° 359° (N) 2,724 6.1 -10.1°
Sets 05:46:38 0° 6° (N) 3,676 6.9 -9.7°
